Mega Smeralda — ICIU — position and weather

sailwx.info

Track history (hours):
 
Tides and Currents Weather Stations Pressure Air Temp Water Temp Dewpoint Dewpoint Depression Visibility Wind Speed Wind Dir Waves Ship Positions

Mega Smeralda

Last reported at 2014-Oct-21 20:33 UTC. Time now 2014-Oct-22 15:30 UTC.
Position N 42°52' E 006°12'.

Length 171 m; draft 6.3 m.

Type: Passenger vessel. MMSI: 247228600.

Date/timePositionNaut miles runAvg speedWind from/ knotsBaromVisibWave heightAir tempDewpointWater temp
2014-Oct-21 20:33N 42°52' E 006°12'1615.7
2014-Oct-21 19:34N 43°04' E 005°58'3 3.2
2014-Oct-21 18:34N 43°07' E 005°56'0 0.0
2014-Oct-21 17:33N 43°07' E 005°56'0 0.0
2014-Oct-21 16:33N 43°07' E 005°56'0 0.0
2014-Oct-21 15:33N 43°07' E 005°56'0 0.0
2014-Oct-21 14:33N 43°07' E 005°56'0 0.0
2014-Oct-21 09:23N 43°07' E 005°56'0 0.0
2014-Oct-21 08:26N 43°07' E 005°56'0 0.0
2014-Oct-21 07:33N 43°07' E 005°56'0 0.0
2014-Oct-21 06:33N 43°07' E 005°56'0 0.0
2014-Oct-21 05:34N 43°07' E 005°56'3 2.8
2014-Oct-21 04:33N 43°05' E 005°58'1716.4
2014-Oct-21 03:30N 42°56' E 006°19'1617.5
2014-Oct-21 02:33N 42°56' E 006°41'1717.1
2014-Oct-21 01:33N 42°57' E 007°05'9016.8
2014-Oct-20 20:14N 43°03' E 009°07'1216.9
2014-Oct-20 19:33N 43°03' E 009°23'102 4.8
2014-Oct-19 22:22N 42°58' E 007°04'1417.2
2014-Oct-19 21:33N 42°57' E 006°45'1716.5
2014-Oct-19 20:33N 42°56' E 006°23'1615.8
2014-Oct-19 19:33N 42°60' E 006°02'8 8.3
2014-Oct-19 18:33N 43°07' E 005°56'0 0.0
2014-Oct-19 17:33N 43°07' E 005°56'0 0.0
2014-Oct-19 16:33N 43°07' E 005°56'0 0.0
2014-Oct-19 15:33N 43°07' E 005°56'0 0.0
2014-Oct-19 14:34N 43°07' E 005°56'0 0.0
2014-Oct-19 13:33N 43°07' E 005°56'0 0.0
2014-Oct-19 12:33N 43°07' E 005°56'0 0.0
2014-Oct-19 11:33N 43°07' E 005°56'0 0.0
2014-Oct-19 10:33N 43°07' E 005°56'0 0.0
2014-Oct-19 09:33N 43°07' E 005°56'0 0.0
2014-Oct-19 08:33N 43°07' E 005°56'0 0.0
2014-Oct-19 07:33N 43°07' E 005°56'0 0.0
2014-Oct-19 06:33N 43°07' E 005°56'0 0.1
2014-Oct-19 05:33N 43°07' E 005°56'1414.3
2014-Oct-19 04:33N 42°56' E 006°09'1717.3
2014-Oct-19 03:34N 42°56' E 006°33'1616.1
2014-Oct-19 02:33N 42°57' E 006°54'1616.0
2014-Oct-19 01:33N 42°58' E 007°16'3115.7
2014-Oct-18 23:34N 42°59' E 007°59'1615.7
2014-Oct-18 22:33N 43°01' E 008°21'1615.8
2014-Oct-18 21:33N 43°02' E 008°42'1615.8
2014-Oct-18 20:33N 43°03' E 009°04'1615.6
2014-Oct-18 19:33N 43°03' E 009°25'22 6.7
2014-Oct-18 16:21N 42°42' E 009°27'1417.1
2014-Oct-18 15:33N 42°50' E 009°43'1918.8
2014-Oct-18 14:34N 43°03' E 010°00'1818.2
2014-Oct-18 13:34N 43°21' E 010°07'1414.1
2014-Oct-18 12:33N 43°33' E 010°17'1 0.6
2014-Oct-18 11:33N 43°33' E 010°18'0 0.4
2014-Oct-18 10:34N 43°33' E 010°17'1312.6
2014-Oct-18 09:34N 43°24' E 010°05'1615.9
2014-Oct-18 08:33N 43°13' E 009°50'1615.7
2014-Oct-18 07:34N 42°60' E 009°38'12 4.0
2014-Oct-18 04:27N 42°48' E 009°31'1616.4
2014-Oct-18 03:27N 43°03' E 009°21'7418.9
2014-Oct-17 23:32N 42°60' E 007°40'2219.0
2014-Oct-17 22:23N 42°58' E 007°10'1618.8
2014-Oct-17 21:34N 42°56' E 006°49'1818.0
2014-Oct-17 20:33N 42°55' E 006°25'1716.9
2014-Oct-17 19:33N 42°59' E 006°02'9 9.0
2014-Oct-17 18:33N 43°07' E 005°56'0 0.0
2014-Oct-17 17:33N 43°07' E 005°56'0 0.0
2014-Oct-17 16:33N 43°07' E 005°56'0 0.0
2014-Oct-17 15:33N 43°07' E 005°56'0 0.0
2014-Oct-17 14:33N 43°07' E 005°56'0 0.0
2014-Oct-17 13:33N 43°07' E 005°56'0 0.0
2014-Oct-17 12:33N 43°07' E 005°56'0 0.0
2014-Oct-17 10:11N 43°07' E 005°56'0 0.0
2014-Oct-17 07:33N 43°07' E 005°56'0 0.0
2014-Oct-17 06:33N 43°07' E 005°56'0 0.0
2014-Oct-17 05:33N 43°07' E 005°56'5 5.2
2014-Oct-17 04:33N 43°03' E 005°59'1412.9
2014-Oct-17 03:27N 42°53' E 006°14'1413.4
2014-Oct-17 02:25N 42°46' E 006°30'1212.9
2014-Oct-17 01:31N 42°40' E 006°44'28 0.9
2014-Oct-15 20:15N 42°55' E 006°12'1014.6
2014-Oct-15 19:33N 43°01' E 006°01'7 6.9
2014-Oct-15 18:34N 43°07' E 005°56'0 0.0
2014-Oct-15 17:34N 43°07' E 005°56'0 0.0
2014-Oct-15 16:34N 43°07' E 005°56'0 0.0
2014-Oct-15 15:33N 43°07' E 005°56'0 0.0
2014-Oct-15 14:34N 43°07' E 005°56'0 0.0
2014-Oct-15 13:34N 43°07' E 005°56'0 0.0
2014-Oct-15 12:34N 43°07' E 005°56'0 0.0
2014-Oct-15 11:33N 43°07' E 005°56'0 0.0
2014-Oct-15 10:33N 43°07' E 005°56'0 0.0
2014-Oct-15 09:34N 43°07' E 005°56'0 0.0
2014-Oct-15 08:34N 43°07' E 005°56'0 0.0
2014-Oct-15 07:33N 43°07' E 005°56'0 0.0
2014-Oct-15 06:33N 43°07' E 005°56'0 0.0
2014-Oct-15 05:33N 43°07' E 005°56'5 5.2
2014-Oct-15 04:33N 43°02' E 005°59'1312.5
2014-Oct-15 03:33N 42°53' E 006°11'1313.3
2014-Oct-15 02:33N 42°47' E 006°27'11 0.4
2014-Oct-13 20:24N 42°52' E 006°14'1214.6
2014-Oct-13 19:33N 43°00' E 006°01'8 7.6
2014-Oct-13 18:33N 43°07' E 005°56'0 0.0
2014-Oct-13 17:33N 43°07' E 005°56'0 0.0
2014-Oct-13 16:33N 43°07' E 005°56'0 0.0
2014-Oct-13 15:33N 43°07' E 005°56'0 0.0
2014-Oct-13 14:33N 43°07' E 005°56'0 0.0
2014-Oct-13 13:33N 43°07' E 005°56'0 0.0
2014-Oct-13 12:33N 43°07' E 005°56'0 0.0
2014-Oct-13 11:33N 43°07' E 005°56'0 0.0
2014-Oct-13 10:33N 43°07' E 005°56'0 0.0
2014-Oct-13 09:33N 43°07' E 005°56'0 0.0
2014-Oct-13 08:33N 43°07' E 005°56'0 0.0
2014-Oct-13 07:33N 43°07' E 005°56'0 0.0
2014-Oct-13 06:33N 43°07' E 005°56'0 0.0
2014-Oct-13 05:33N 43°07' E 005°56'4 3.7
2014-Oct-13 04:34N 43°04' E 005°59'2015.2
2014-Oct-13 03:13N 42°56' E 006°24'1217.8
2014-Oct-13 02:33N 42°56' E 006°41'1717.4
2014-Oct-13 01:34N 42°57' E 007°04'5116.9
2014-Oct-12 22:33N 43°00' E 008°13'3416.8
2014-Oct-12 20:33N 43°03' E 008°59'1716.6
2014-Oct-12 19:33N 43°04' E 009°22'102 4.6
2014-Oct-11 21:33N 42°58' E 007°02'1515.4
2014-Oct-11 20:33N 42°57' E 006°41'  
Track history (hours):
 
Tides and Currents Weather Stations Pressure Air Temp Water Temp Dewpoint Dewpoint Depression Visibility Wind Speed Wind Dir Waves Ship Positions

Mega Smeralda

Last reported at 2014-Oct-21 20:33 UTC. Time now 2014-Oct-22 15:30 UTC.
Position N 42°52' E 006°12'.

Length 171 m; draft 6.3 m.

Type: Passenger vessel. MMSI: 247228600.

Date/timePositionNaut miles runAvg speedWind from/ knotsBaromVisibWave heightAir tempDewpointWater temp
2014-Oct-21 20:33N 42°52' E 006°12'1615.7
2014-Oct-21 19:34N 43°04' E 005°58'3 3.2
2014-Oct-21 18:34N 43°07' E 005°56'0 0.0
2014-Oct-21 17:33N 43°07' E 005°56'0 0.0
2014-Oct-21 16:33N 43°07' E 005°56'0 0.0
2014-Oct-21 15:33N 43°07' E 005°56'0 0.0
2014-Oct-21 14:33N 43°07' E 005°56'0 0.0
2014-Oct-21 09:23N 43°07' E 005°56'0 0.0
2014-Oct-21 08:26N 43°07' E 005°56'0 0.0
2014-Oct-21 07:33N 43°07' E 005°56'0 0.0
2014-Oct-21 06:33N 43°07' E 005°56'0 0.0
2014-Oct-21 05:34N 43°07' E 005°56'3 2.8
2014-Oct-21 04:33N 43°05' E 005°58'1716.4
2014-Oct-21 03:30N 42°56' E 006°19'1617.5
2014-Oct-21 02:33N 42°56' E 006°41'1717.1
2014-Oct-21 01:33N 42°57' E 007°05'9016.8
2014-Oct-20 20:14N 43°03' E 009°07'1216.9
2014-Oct-20 19:33N 43°03' E 009°23'102 4.8
2014-Oct-19 22:22N 42°58' E 007°04'1417.2
2014-Oct-19 21:33N 42°57' E 006°45'1716.5
2014-Oct-19 20:33N 42°56' E 006°23'1615.8
2014-Oct-19 19:33N 42°60' E 006°02'8 8.3
2014-Oct-19 18:33N 43°07' E 005°56'0 0.0
2014-Oct-19 17:33N 43°07' E 005°56'0 0.0
2014-Oct-19 16:33N 43°07' E 005°56'0 0.0
2014-Oct-19 15:33N 43°07' E 005°56'0 0.0
2014-Oct-19 14:34N 43°07' E 005°56'0 0.0
2014-Oct-19 13:33N 43°07' E 005°56'0 0.0
2014-Oct-19 12:33N 43°07' E 005°56'0 0.0
2014-Oct-19 11:33N 43°07' E 005°56'0 0.0
2014-Oct-19 10:33N 43°07' E 005°56'0 0.0
2014-Oct-19 09:33N 43°07' E 005°56'0 0.0
2014-Oct-19 08:33N 43°07' E 005°56'0 0.0
2014-Oct-19 07:33N 43°07' E 005°56'0 0.0
2014-Oct-19 06:33N 43°07' E 005°56'0 0.1
2014-Oct-19 05:33N 43°07' E 005°56'1414.3
2014-Oct-19 04:33N 42°56' E 006°09'1717.3
2014-Oct-19 03:34N 42°56' E 006°33'1616.1
2014-Oct-19 02:33N 42°57' E 006°54'1616.0
2014-Oct-19 01:33N 42°58' E 007°16'3115.7
2014-Oct-18 23:34N 42°59' E 007°59'1615.7
2014-Oct-18 22:33N 43°01' E 008°21'1615.8
2014-Oct-18 21:33N 43°02' E 008°42'1615.8
2014-Oct-18 20:33N 43°03' E 009°04'1615.6
2014-Oct-18 19:33N 43°03' E 009°25'22 6.7
2014-Oct-18 16:21N 42°42' E 009°27'1417.1
2014-Oct-18 15:33N 42°50' E 009°43'1918.8
2014-Oct-18 14:34N 43°03' E 010°00'1818.2
2014-Oct-18 13:34N 43°21' E 010°07'1414.1
2014-Oct-18 12:33N 43°33' E 010°17'1 0.6
2014-Oct-18 11:33N 43°33' E 010°18'0 0.4
2014-Oct-18 10:34N 43°33' E 010°17'1312.6
2014-Oct-18 09:34N 43°24' E 010°05'1615.9
2014-Oct-18 08:33N 43°13' E 009°50'1615.7
2014-Oct-18 07:34N 42°60' E 009°38'12 4.0
2014-Oct-18 04:27N 42°48' E 009°31'1616.4
2014-Oct-18 03:27N 43°03' E 009°21'7418.9
2014-Oct-17 23:32N 42°60' E 007°40'2219.0
2014-Oct-17 22:23N 42°58' E 007°10'1618.8
2014-Oct-17 21:34N 42°56' E 006°49'1818.0
2014-Oct-17 20:33N 42°55' E 006°25'1716.9
2014-Oct-17 19:33N 42°59' E 006°02'9 9.0
2014-Oct-17 18:33N 43°07' E 005°56'0 0.0
2014-Oct-17 17:33N 43°07' E 005°56'0 0.0
2014-Oct-17 16:33N 43°07' E 005°56'0 0.0
2014-Oct-17 15:33N 43°07' E 005°56'0 0.0
2014-Oct-17 14:33N 43°07' E 005°56'0 0.0
2014-Oct-17 13:33N 43°07' E 005°56'0 0.0
2014-Oct-17 12:33N 43°07' E 005°56'0 0.0
2014-Oct-17 10:11N 43°07' E 005°56'0 0.0
2014-Oct-17 07:33N 43°07' E 005°56'0 0.0
2014-Oct-17 06:33N 43°07' E 005°56'0 0.0
2014-Oct-17 05:33N 43°07' E 005°56'5 5.2
2014-Oct-17 04:33N 43°03' E 005°59'1412.9
2014-Oct-17 03:27N 42°53' E 006°14'1413.4
2014-Oct-17 02:25N 42°46' E 006°30'1212.9
2014-Oct-17 01:31N 42°40' E 006°44'28 0.9
2014-Oct-15 20:15N 42°55' E 006°12'1014.6
2014-Oct-15 19:33N 43°01' E 006°01'7 6.9
2014-Oct-15 18:34N 43°07' E 005°56'0 0.0
2014-Oct-15 17:34N 43°07' E 005°56'0 0.0
2014-Oct-15 16:34N 43°07' E 005°56'0 0.0
2014-Oct-15 15:33N 43°07' E 005°56'0 0.0
2014-Oct-15 14:34N 43°07' E 005°56'0 0.0
2014-Oct-15 13:34N 43°07' E 005°56'0 0.0
2014-Oct-15 12:34N 43°07' E 005°56'0 0.0
2014-Oct-15 11:33N 43°07' E 005°56'0 0.0
2014-Oct-15 10:33N 43°07' E 005°56'0 0.0
2014-Oct-15 09:34N 43°07' E 005°56'0 0.0
2014-Oct-15 08:34N 43°07' E 005°56'0 0.0
2014-Oct-15 07:33N 43°07' E 005°56'0 0.0
2014-Oct-15 06:33N 43°07' E 005°56'0 0.0
2014-Oct-15 05:33N 43°07' E 005°56'5 5.2
2014-Oct-15 04:33N 43°02' E 005°59'1312.5
2014-Oct-15 03:33N 42°53' E 006°11'1313.3
2014-Oct-15 02:33N 42°47' E 006°27'11 0.4
2014-Oct-13 20:24N 42°52' E 006°14'1214.6
2014-Oct-13 19:33N 43°00' E 006°01'8 7.6
2014-Oct-13 18:33N 43°07' E 005°56'0 0.0
2014-Oct-13 17:33N 43°07' E 005°56'0 0.0
2014-Oct-13 16:33N 43°07' E 005°56'0 0.0
2014-Oct-13 15:33N 43°07' E 005°56'0 0.0
2014-Oct-13 14:33N 43°07' E 005°56'0 0.0
2014-Oct-13 13:33N 43°07' E 005°56'0 0.0
2014-Oct-13 12:33N 43°07' E 005°56'0 0.0
2014-Oct-13 11:33N 43°07' E 005°56'0 0.0
2014-Oct-13 10:33N 43°07' E 005°56'0 0.0
2014-Oct-13 09:33N 43°07' E 005°56'0 0.0
2014-Oct-13 08:33N 43°07' E 005°56'0 0.0
2014-Oct-13 07:33N 43°07' E 005°56'0 0.0
2014-Oct-13 06:33N 43°07' E 005°56'0 0.0
2014-Oct-13 05:33N 43°07' E 005°56'4 3.7
2014-Oct-13 04:34N 43°04' E 005°59'2015.2
2014-Oct-13 03:13N 42°56' E 006°24'1217.8
2014-Oct-13 02:33N 42°56' E 006°41'1717.4
2014-Oct-13 01:34N 42°57' E 007°04'5116.9
2014-Oct-12 22:33N 43°00' E 008°13'3416.8
2014-Oct-12 20:33N 43°03' E 008°59'1716.6
2014-Oct-12 19:33N 43°04' E 009°22'102 4.6
2014-Oct-11 21:33N 42°58' E 007°02'1515.4
2014-Oct-11 20:33N 42°57' E 006°41'  

Dump ship's entire track history